To NAV CANADA Home Page Login to a new session Search on AWWS site Feedback and Comments Disclaimer Vers la page française équivalente Tips FAQ What's new on the site To the Forecasts and Observations / NOTAM section To "File a Flight Plan" website Publications and other links Update of the User's profile FIC Telephone Numbers My Weather Data Folder Route Weather Data Regional Weather Data Local Weather Data To the Forecasts and Observations / NOTAM section
Request Generated 05/29/2016 at 13:20:00 UTC . Weather information available at that time is displayed.

METAR/TAF

FLIN FLON/MB    (show WxCam)

SPECI CYFO 291313Z 36003KT 340V050 15SM SCT007 OVC020 09/06 A2997 RMK
SC4SC4 SLP162=
METAR CYFO 291300Z 03003KT 010V080 15SM OVC007 08/06 A2998 RMK SC8
CIG RAG SLP164=
METAR CYFO 291200Z 05005KT 15SM OVC007 08/06 A2998 RMK SC8 SLP163=
METAR CYFO 291100Z 06004KT 15SM OVC007 08/06 A2998 RMK SC8 SLP165=

CYFO - No TAF is issued for this station

Your time UTC time
Weather data provided by Environment Canada and NAV CANADA